2024/06/10 11:50:00,0.0,21.3
2024/06/10 12:00:00,0.0,21.6
2024/06/10 12:10:00,0.0,21.9
2024/06/10 12:20:00,0.0,21.7
2024/06/10 12:30:00,0.0,21.6
2024/06/10 12:40:00,0.0,21.4
2024/06/10 12:50:00,0.0,21.2
2024/06/10 13:00:00,0.0,21.1
2024/06/10 13:10:00,0.0,21.5
2024/06/10 13:20:00,0.0,21.3
2024/06/10 13:30:00,0.0,21.5
2024/06/10 13:40:00,0.0,21.9
2024/06/10 13:50:00,0.0,22.0
2024/06/10 14:00:00,0.0,22.0
2024/06/10 14:10:00,0.0,21.6
2024/06/10 14:20:00,0.0,21.7
2024/06/10 14:30:00,0.0,22.0
2024/06/10 14:40:00,0.0,22.5
2024/06/10 14:50:00,0.0,22.6
2024/06/10 15:00:00,0.0,22.2
2024/06/10 15:10:00,0.0,22.3
2024/06/10 15:20:00,0.0,22.1
2024/06/10 15:30:00,0.0,21.6
2024/06/10 15:40:00,0.0,22.0
2024/06/10 15:50:00,0.0,21.8
2024/06/10 16:00:00,0.0,21.8
2024/06/10 16:10:00,0.0,22.1
2024/06/10 16:20:00,0.0,22.3
2024/06/10 16:30:00,0.0,22.4
2024/06/10 16:40:00,0.0,22.0
2024/06/10 16:50:00,0.0,21.5
2024/06/10 17:00:00,0.0,21.5
2024/06/10 17:10:00,0.0,21.1
2024/06/10 17:20:00,0.0,21.2
2024/06/10 17:30:00,0.0,21.8
2024/06/10 17:40:00,0.0,21.9
2024/06/10 17:50:00,0.0,22.1
2024/06/10 18:00:00,0.0,21.4
2024/06/10 18:10:00,0.0,20.4
2024/06/10 18:20:00,0.0,19.7
2024/06/10 18:30:00,0.0,19.6
2024/06/10 18:40:00,0.0,19.1
2024/06/10 18:50:00,0.0,18.6
2024/06/10 19:00:00,0.0,18.2
2024/06/10 19:10:00,0.0,17.9
2024/06/10 19:20:00,0.0,17.6
2024/06/10 19:30:00,0.0,17.3
2024/06/10 19:40:00,0.0,17.0
2024/06/10 19:50:00,0.0,16.7
2024/06/10 20:00:00,0.0,16.4
2024/06/10 20:10:00,0.0,16.3
2024/06/10 20:20:00,0.0,16.2
2024/06/10 20:30:00,0.0,16.1
2024/06/10 20:40:00,0.0,15.9
2024/06/10 20:50:00,0.0,15.8
2024/06/10 21:00:00,0.0,15.6
2024/06/10 21:10:00,0.0,15.5
2024/06/10 21:20:00,0.0,15.4
2024/06/10 21:30:00,0.0,15.2
2024/06/10 21:40:00,0.0,15.2
2024/06/10 21:50:00,0.0,15.2
2024/06/10 22:00:00,0.0,15.2
2024/06/10 22:10:00,0.0,15.1
2024/06/10 22:20:00,0.0,15.0
2024/06/10 22:30:00,0.0,14.9
2024/06/10 22:40:00,0.0,14.9
2024/06/10 22:50:00,0.0,14.8
2024/06/10 23:00:00,0.0,14.7
2024/06/10 23:10:00,0.0,14.7
2024/06/10 23:20:00,0.0,14.6
2024/06/10 23:30:00,0.0,14.6
2024/06/10 23:40:00,0.0,14.5
2024/06/10 23:50:00,0.0,14.4
